![]() |
EMODnet Physics ERDDAP
Easier access to scientific data |
log in|
Brought to you by EMODnet Physics |
| Dataset Title: | NDBC - Collection of dew point temperature (DEWT) TimeSeries - IN SITU MultiPointTimeSeriesObservation
|
| Institution: | NDBC (Dataset ID: TS_DEWT_NDBC) |
| Information: | Summary
| License
| FGDC
| ISO 19115
| Metadata
| Background
| Subset
| Data Access Form
| Make a graph
|
| Name | Last modified | Size | Description | |
|---|---|---|---|---|
| Parent Directory | - | - | ||
| BLIF1_TS_DEWT_012015.nc | 23-Dec-2024 17:57 | 1476906 | ||
| BLIF1_TS_DEWT_012016.nc | 23-Dec-2024 18:03 | 1477897 | ||
| BLIF1_TS_DEWT_012017.nc | 23-Dec-2024 18:09 | 1477761 | ||
| BLIF1_TS_DEWT_012018.nc | 23-Dec-2024 18:14 | 1477913 | ||
| BLIF1_TS_DEWT_012019.nc | 23-Dec-2024 18:20 | 1477973 | ||
| BLIF1_TS_DEWT_012020.nc | 23-Dec-2024 18:26 | 1477794 | ||
| BLIF1_TS_DEWT_012021.nc | 23-Dec-2024 18:31 | 1477792 | ||
| BLIF1_TS_DEWT_012022.nc | 23-Dec-2024 18:37 | 1474854 | ||
| BLIF1_TS_DEWT_012025.nc | 06-Feb-2025 11:35 | 1464716 | ||
| BLIF1_TS_DEWT_012026.nc | 02-Feb-2026 18:18 | 429710 | ||
| BLIF1_TS_DEWT_022015.nc | 23-Dec-2024 17:58 | 1473874 | ||
| BLIF1_TS_DEWT_022016.nc | 23-Dec-2024 18:03 | 1625714 | ||
| BLIF1_TS_DEWT_022017.nc | 23-Dec-2024 18:09 | 1627786 | ||
| BLIF1_TS_DEWT_022018.nc | 23-Dec-2024 18:15 | 1627740 | ||
| BLIF1_TS_DEWT_022019.nc | 23-Dec-2024 18:20 | 1627775 | ||
| BLIF1_TS_DEWT_022020.nc | 23-Dec-2024 18:26 | 1627771 | ||
| BLIF1_TS_DEWT_022021.nc | 23-Dec-2024 18:31 | 1627353 | ||
| BLIF1_TS_DEWT_022022.nc | 23-Dec-2024 18:37 | 1627781 | ||
| BLIF1_TS_DEWT_022026.nc | 01-Mar-2026 08:39 | 1626749 | ||
| BLIF1_TS_DEWT_032014.nc | 23-Dec-2024 17:53 | 1627569 | ||
| BLIF1_TS_DEWT_032015.nc | 23-Dec-2024 17:58 | 1627755 | ||
| BLIF1_TS_DEWT_032016.nc | 23-Dec-2024 18:04 | 1627466 | ||
| BLIF1_TS_DEWT_032017.nc | 23-Dec-2024 18:10 | 1627740 | ||
| BLIF1_TS_DEWT_032018.nc | 23-Dec-2024 18:15 | 1627813 | ||
| BLIF1_TS_DEWT_032019.nc | 23-Dec-2024 18:21 | 1625305 | ||
| BLIF1_TS_DEWT_032020.nc | 23-Dec-2024 18:26 | 1627717 | ||
| BLIF1_TS_DEWT_032021.nc | 23-Dec-2024 18:32 | 1626238 | ||
| BLIF1_TS_DEWT_032022.nc | 23-Dec-2024 18:37 | 1158989 | ||
| BLIF1_TS_DEWT_032023.nc | 23-Dec-2024 18:41 | 995386 | ||
| BLIF1_TS_DEWT_032026.nc | 25-Mar-2026 11:35 | 1474944 | ||
| BLIF1_TS_DEWT_042014.nc | 23-Dec-2024 17:53 | 418800 | ||
| BLIF1_TS_DEWT_042015.nc | 23-Dec-2024 17:59 | 1477892 | ||
| BLIF1_TS_DEWT_042016.nc | 23-Dec-2024 18:04 | 1477616 | ||
| BLIF1_TS_DEWT_042017.nc | 23-Dec-2024 18:10 | 1476729 | ||
| BLIF1_TS_DEWT_042018.nc | 23-Dec-2024 18:16 | 1477961 | ||
| BLIF1_TS_DEWT_042019.nc | 23-Dec-2024 18:21 | 1477585 | ||
| BLIF1_TS_DEWT_042020.nc | 23-Dec-2024 18:27 | 1477632 | ||
| BLIF1_TS_DEWT_042021.nc | 23-Dec-2024 18:32 | 1477640 | ||
| BLIF1_TS_DEWT_042022.nc | 23-Dec-2024 18:38 | 1477693 | ||
| BLIF1_TS_DEWT_042023.nc | 23-Dec-2024 18:41 | 1477961 | ||
| BLIF1_TS_DEWT_052014.nc | 23-Dec-2024 17:54 | 1477947 | ||
| BLIF1_TS_DEWT_052015.nc | 23-Dec-2024 17:59 | 1477154 | ||
| BLIF1_TS_DEWT_052016.nc | 23-Dec-2024 18:05 | 1477901 | ||
| BLIF1_TS_DEWT_052017.nc | 23-Dec-2024 18:10 | 1477660 | ||
| BLIF1_TS_DEWT_052018.nc | 23-Dec-2024 18:16 | 1477894 | ||
| BLIF1_TS_DEWT_052019.nc | 23-Dec-2024 18:22 | 1475160 | ||
| BLIF1_TS_DEWT_052020.nc | 23-Dec-2024 18:27 | 429766 | ||
| BLIF1_TS_DEWT_052021.nc | 23-Dec-2024 18:33 | 1476717 | ||
| BLIF1_TS_DEWT_052022.nc | 23-Dec-2024 18:38 | 1626175 | ||
| BLIF1_TS_DEWT_052023.nc | 23-Dec-2024 18:42 | 1627738 | ||
| BLIF1_TS_DEWT_062014.nc | 23-Dec-2024 17:54 | 1627626 | ||
| BLIF1_TS_DEWT_062015.nc | 23-Dec-2024 18:00 | 1626966 | ||
| BLIF1_TS_DEWT_062016.nc | 23-Dec-2024 18:05 | 1627790 | ||
| BLIF1_TS_DEWT_062017.nc | 23-Dec-2024 18:11 | 1627551 | ||
| BLIF1_TS_DEWT_062018.nc | 23-Dec-2024 18:17 | 1627735 | ||
| BLIF1_TS_DEWT_062019.nc | 23-Dec-2024 18:22 | 1627801 | ||
| BLIF1_TS_DEWT_062020.nc | 23-Dec-2024 18:28 | 1626472 | ||
| BLIF1_TS_DEWT_062021.nc | 23-Dec-2024 18:33 | 1627268 | ||
| BLIF1_TS_DEWT_062022.nc | 23-Dec-2024 18:39 | 1627621 | ||
| BLIF1_TS_DEWT_062023.nc | 23-Dec-2024 18:42 | 1626680 | ||
| BLIF1_TS_DEWT_072014.nc | 23-Dec-2024 17:55 | 1627038 | ||
| BLIF1_TS_DEWT_072015.nc | 23-Dec-2024 18:00 | 1626090 | ||
| BLIF1_TS_DEWT_072016.nc | 23-Dec-2024 18:06 | 1626900 | ||
| BLIF1_TS_DEWT_072017.nc | 23-Dec-2024 18:12 | 1627795 | ||
| BLIF1_TS_DEWT_072018.nc | 23-Dec-2024 18:17 | 1626871 | ||
| BLIF1_TS_DEWT_072019.nc | 23-Dec-2024 18:23 | 428886 | ||
| BLIF1_TS_DEWT_072020.nc | 23-Dec-2024 18:28 | 1475818 | ||
| BLIF1_TS_DEWT_072021.nc | 23-Dec-2024 18:34 | 1472133 | ||
| BLIF1_TS_DEWT_072022.nc | 23-Dec-2024 18:39 | 1627631 | ||
| BLIF1_TS_DEWT_072023.nc | 23-Dec-2024 18:43 | 1627749 | ||
| BLIF1_TS_DEWT_082014.nc | 23-Dec-2024 17:55 | 1627580 | ||
| BLIF1_TS_DEWT_082015.nc | 23-Dec-2024 18:01 | 1627799 | ||
| BLIF1_TS_DEWT_082016.nc | 23-Dec-2024 18:06 | 1627833 | ||
| BLIF1_TS_DEWT_082017.nc | 23-Dec-2024 18:12 | 1627153 | ||
| BLIF1_TS_DEWT_082018.nc | 23-Dec-2024 18:18 | 1627589 | ||
| BLIF1_TS_DEWT_082019.nc | 23-Dec-2024 18:23 | 1627256 | ||
| BLIF1_TS_DEWT_082020.nc | 23-Dec-2024 18:29 | 1627407 | ||
| BLIF1_TS_DEWT_082021.nc | 23-Dec-2024 18:34 | 1627733 | ||
| BLIF1_TS_DEWT_082022.nc | 23-Dec-2024 18:40 | 1626144 | ||
| BLIF1_TS_DEWT_082023.nc | 23-Dec-2024 18:43 | 1627207 | ||
| BLIF1_TS_DEWT_092014.nc | 23-Dec-2024 17:56 | 1626172 | ||
| BLIF1_TS_DEWT_092015.nc | 23-Dec-2024 18:01 | 1627790 | ||
| BLIF1_TS_DEWT_092016.nc | 23-Dec-2024 18:07 | 1627761 | ||
| BLIF1_TS_DEWT_092017.nc | 23-Dec-2024 18:12 | 1626022 | ||
| BLIF1_TS_DEWT_092018.nc | 23-Dec-2024 18:18 | 424031 | ||
| BLIF1_TS_DEWT_092019.nc | 23-Dec-2024 18:24 | 1474806 | ||
| BLIF1_TS_DEWT_092020.nc | 23-Dec-2024 18:29 | 1460047 | ||
| BLIF1_TS_DEWT_092021.nc | 23-Dec-2024 18:35 | 1475319 | ||
| BLIF1_TS_DEWT_092022.nc | 23-Dec-2024 18:40 | 1477673 | ||
| BLIF1_TS_DEWT_092023.nc | 23-Dec-2024 18:44 | 1472285 | ||
| BLIF1_TS_DEWT_092025.nc | 01-Oct-2025 06:27 | 1477961 | ||
| BLIF1_TS_DEWT_102014.nc | 23-Dec-2024 17:56 | 1477794 | ||
| BLIF1_TS_DEWT_102015.nc | 23-Dec-2024 18:02 | 1477969 | ||
| BLIF1_TS_DEWT_102016.nc | 23-Dec-2024 18:07 | 1477233 | ||
| BLIF1_TS_DEWT_102017.nc | 23-Dec-2024 18:13 | 1477613 | ||
| BLIF1_TS_DEWT_102018.nc | 23-Dec-2024 18:19 | 1477230 | ||
| BLIF1_TS_DEWT_102019.nc | 23-Dec-2024 18:24 | 1477949 | ||
| BLIF1_TS_DEWT_102020.nc | 23-Dec-2024 18:30 | 418800 | ||
| BLIF1_TS_DEWT_102021.nc | 23-Dec-2024 18:35 | 1477324 | ||
| BLIF1_TS_DEWT_102022.nc | 23-Dec-2024 18:41 | 1477722 | ||
| BLIF1_TS_DEWT_102023.nc | 23-Dec-2024 18:44 | 1477921 | ||
| BLIF1_TS_DEWT_102024.nc | 12-Jan-2025 21:49 | 1477973 | ||
| BLIF1_TS_DEWT_102025.nc | 01-Nov-2025 07:23 | 1474973 | ||
| BLIF1_TS_DEWT_112014.nc | 23-Dec-2024 17:56 | 429712 | ||
| BLIF1_TS_DEWT_112015.nc | 23-Dec-2024 18:02 | 1475055 | ||
| BLIF1_TS_DEWT_112016.nc | 23-Dec-2024 18:08 | 1626438 | ||
| BLIF1_TS_DEWT_112017.nc | 23-Dec-2024 18:13 | 1473186 | ||
| BLIF1_TS_DEWT_112018.nc | 23-Dec-2024 18:19 | 1475131 | ||
| BLIF1_TS_DEWT_112019.nc | 23-Dec-2024 18:25 | 1625378 | ||
| BLIF1_TS_DEWT_112020.nc | 23-Dec-2024 18:30 | 1477766 | ||
| BLIF1_TS_DEWT_112021.nc | 23-Dec-2024 18:35 | 1478170 | ||
| BLIF1_TS_DEWT_112022.nc | 23-Dec-2024 18:41 | 1477748 | ||
| BLIF1_TS_DEWT_112023.nc | 23-Dec-2024 18:45 | 1625704 | ||
| BLIF1_TS_DEWT_112024.nc | 17-Jan-2025 17:09 | 1627611 | ||
| BLIF1_TS_DEWT_112025.nc | 01-Dec-2025 05:47 | 1627538 | ||
| BLIF1_TS_DEWT_122014.nc | 23-Dec-2024 17:57 | 1627737 | ||
| BLIF1_TS_DEWT_122015.nc | 23-Dec-2024 18:02 | 1626863 | ||
| BLIF1_TS_DEWT_122016.nc | 23-Dec-2024 18:08 | 1627456 | ||
| BLIF1_TS_DEWT_122017.nc | 23-Dec-2024 18:14 | 1627311 | ||
| BLIF1_TS_DEWT_122018.nc | 23-Dec-2024 18:19 | 1627522 | ||
| BLIF1_TS_DEWT_122019.nc | 23-Dec-2024 18:25 | 1627436 | ||
| BLIF1_TS_DEWT_122020.nc | 23-Dec-2024 18:31 | 1478211 | ||
| BLIF1_TS_DEWT_122021.nc | 23-Dec-2024 18:36 | 429376 | ||
| BLIF1_TS_DEWT_122023.nc | 23-Dec-2024 18:45 | 1477309 | ||
| BLIF1_TS_DEWT_122024.nc | 22-Jan-2025 18:03 | 1477748 | ||
| BLIF1_TS_DEWT_122025.nc | 30-Dec-2025 06:12 | 1477614 | ||